Location: downtown San Diego
(32.7310°N, 117.1990°W)
Time: 21:47:19
(UTC-07:00)

Cosmos 2208 Rocket - Pass Details

Date: 12 July 2018
Orbit: 754 x 806 km, 74.0° (Epoch: 17 July)

Event Time Altitude Azimuth Distance (km) Brightness Sun altitude
Rises 21:53:04 0° 346° (NNW) 3,322 8.3 -20.3°
Reaches altitude 10° 21:55:30 10° 349° (N) 2,390 7.3 -20.7°
Maximum altitude 22:00:56 67° 72° (ENE) 871 4.1 -21.5°
Enters shadow 22:02:20 48° 134° (SE) 1,043 4.2 -21.7°
